Regional Weather Roundup
Issued by NWS Portland, ME

Home | Current Version | Previous Version | Text Only | Print | Product List | Glossary On
Versions: 1 2 3 4 5 6 7 8 9 10 11 12 13 14 15 16 17 18 19 20 21 22 23 24 25 26 27 28 29 30 31 32 33 34 35 36 37 38 39 40 41 42 43 44 45 46 47 48 49 50
000
ASUS41 KGYX 221310
RWRGYX
WEATHER ROUNDUP FOR MAINE AND NEW HAMPSHIRE
NATIONAL WEATHER SERVICE GRAY ME
900 AM EDT SUN APR 22 2018

MEZ002-005-006-010-012-015-018-020-021-024-026-027-029-221400-
MAINE

CITY           SKY/WX    TMP DP  RH WIND       PRES   REMARKS
PORTLAND       FAIR      49  23  36 NW13G18   30.33R
SANFORD        FAIR      49  22  34 NW7       30.33S
BAR HARBOR     FAIR      44  20  38 NW8       30.28S
WISCASSET      FAIR      47  22  37 VRB3      30.32S
ROCKLAND       FAIR      46  21  37 VRB7      30.29S
FRYEBURG       FAIR      45  21  38 E3        30.32S
LEWISTONAUBURN FAIR      45  20  36 NW9       30.32S
AUGUSTA        FAIR      45  21  38 NW5       30.30S
WATERVILLE     FAIR      44  19  36 NW10G17   30.28S
BANGOR         FAIR      45  19  35 NW14      30.28S
GREENVILLE       N/A     36  17  46 NW18      30.23S
MILLINOCKET    FAIR      43  16  33 NW7       30.27S
HOULTON        FAIR      40  19  43 N13       30.23R
PRESQUE ISLE   FAIR      37  18  46 N9        30.26R
FRENCHVILLE    FAIR      36  14  40 N15       30.23R
CARIBOU        FAIR      38  17  42 NW8       30.24R
$$

NHZ002-005-008-009-011-012-014-221400-
NEW HAMPSHIRE

CITY           SKY/WX    TMP DP  RH WIND       PRES   REMARKS
PORTSMOUTH     SUNNY     49  19  30 W10       30.32S
ROCHESTER      FAIR      48  24  39 NW8       30.33R
NASHUA         FAIR      49  19  30 NW10      30.36S
MANCHESTER     FAIR      50  18  28 NW13      30.34S
CONCORD        FAIR      46  22  38 NW7       30.36S
LACONIA        FAIR      45  21  38 SW10      30.34S
PLYMOUTH       FAIR      44  20  38 MISG      30.35R
BERLIN         FAIR      42  21  43 VRB5      30.32R
WHITEFIELD     FAIR      40  21  46 CALM      30.34S
JAFFREY        FAIR      46  19  34 VRB5      30.35R
KEENE          FAIR      46  33  60 CALM      30.38S
LEBANON        FAIR      40  24  53 CALM      30.37S
MT WASHINGTON  MOSUNNY   16   9  73 NW43G51     N/A  WCI  -7
$$

VTZ005-007-008-221400-
VERMONT

CITY           SKY/WX    TMP DP  RH WIND       PRES   REMARKS
ST JOHNSBURY     N/A     38  24  57 MISG      30.35S
MONTPELIER     FAIR      40  21  46 NW7       30.39S
BURLINGTON     FAIR      43  23  45 CALM      30.41R
$$

MAZ007-012-024-CTZ003-RIZ002-NYZ038-NYZ072-221400-
SOUTHERN NEW ENGLAND AND NY

CITY           SKY/WX    TMP DP  RH WIND       PRES   REMARKS
BOSTON         FAIR      50  20  30 NW12      30.35S
WORCESTER      FAIR      46  18  32 NW12      30.35R
NANTUCKET      FAIR      51  31  46 NW10      30.35R
PROVIDENCE     FAIR      53  19  26 N13       30.37R
HARTFORD       FAIR      47  23  38 E3        30.39R
ALBANY         FAIR      45  23  42 N5        30.42R
NEW YORK CITY  FAIR      52  24  33 NW7       30.41S
$$

ANZ081-ANZ082-ANZ150-NHZ014-MEZ023>029-221400-
COASTAL MARINE OBSERVATIONS

STATION/POSITION TIME  TEMP    WIND        PRES    WAVE
                       AIR SEA DIR/SP/G            HT/PER
                 (UTC) (F)     (DEG/KT/KT) (MB)    (FT/S)
MOUNT DESERT ROC 1300   40     300/ 12/ 13 1025.3R
MATINICUS ROCK   1300   42     310/ 13/ 14 1025.3R
ISLE OF SHOALS   1300   45     290/ 13/ 13 1026.7R
JEFFREYS LEDGE   1206      41                N/A     2/ 3
CASHES LEDGE BUO 1250   44 41              1026.2R   2/ 8
$$

.............KEY..............
   WCI - WIND CHILL
   TC  - TEMPERATURE IN CELSIUS
   VSB - VISIBILITY IN MILES
   HX  - HEAT INDEX
   FAIR- INDICATES FEW OR NO CLOUDS BELOW 12,000 FT, WITH NO
         SIGNIFICANT WEATHER AND/OR OBSTRUCTIONS TO VISIBILITY.






USA.gov is the U.S. government's official web portal to all federal, state and local government web resources and services.